Flag for U.S.A. Weather past 2 weeks in Lincoln, Nebraska, U.S.A.

Now
64 °F

Overcast.


Feels Like: 64 °F
Forecast: 62 / 70 °F
Wind: 16 mph from South

Location: Lincoln Municipal Airport

Current Time: May 6, 2015 at 9:42:11 AM

Latest Report: May 6, 2015 at 9:01 AM


Visibility: 9 mi

Pressure: 29.82 "Hg

Humidity: 90%

Dew point: 61 °F

Location of LincolnLocation

Historic Weather in Lincoln — Graph

°F

Lincoln temperature yesterday

Maximum temperature yesterday: 76 °F (at 2:54 PM)
Minimum temperature yesterday: 59 °F (at 4:54 AM)
Average temperature yesterday: 67 °F

Past Weeks' High & Low Weather Summary

 TemperatureHumidityPressure
High84 °F (May 2, 4:54 PM)96% (Apr 25, 3:54 AM)30.24 "Hg (Apr 25, 3:54 AM)
Low31 °F (Apr 22, 5:54 AM)20% (Apr 30, 3:54 PM)29.42 "Hg (Apr 25, 2:54 AM)
Average58 °F62%29.95 "Hg
* Reported Apr 21 7:54 AM — May 6 7:54 AM, Lincoln, Weather by CustomWeather, © 2015

Note: Actual official high and low records may vary slightly from our data, if they occured in-between our weather recording intervals... More about our weather records

Advertising

Lincoln weather history for previous 24 hours

 ConditionsComfort  
Time TempWeatherWind HumidityBarometerVisibility
7:54 AM
Wed, May 6
64 °FMostly cloudy.18 mph87%29.79 "Hg10 mi
6:54 AM63 °FLight rain. Overcast.18 mph90%29.79 "Hg10 mi
5:54 AM63 °FLight rain. Fog.14 mph93%29.82 "Hg6 mi
4:54 AM64 °FLight rain. Overcast.9 mph87%29.84 "Hg8 mi
3:54 AM64 °FPassing clouds.9 mph87%29.85 "Hg10 mi
2:54 AM65 °FOvercast.17 mph85%29.88 "Hg10 mi
1:54 AM64 °FOvercast.15 mph87%29.91 "Hg10 mi
12:54 AM65 °FMostly cloudy.15 mph85%29.93 "Hg10 mi
11:54 PM
Tue, May 5
66 °FMostly cloudy.16 mph81%29.95 "Hg10 mi
10:54 PM67 °FOvercast.14 mph76%29.94 "Hg10 mi
9:54 PM67 °FLight rain. Mostly cloudy.8 mph76%29.93 "Hg5 mi
8:54 PM72 °FBroken clouds.14 mph55%29.93 "Hg10 mi
7:54 PM73 °FSunny.12 mph51%29.92 "Hg10 mi
6:54 PM74 °FSunny.13 mph50%29.93 "Hg10 mi
5:54 PM75 °FSunny.20 mph52%29.94 "Hg10 mi
4:54 PM76 °FSunny.18 mph50%29.96 "Hg10 mi
3:54 PM75 °FScattered clouds.13 mph58%29.98 "Hg10 mi
2:54 PM76 °FPassing clouds.16 mph56%29.99 "Hg10 mi
1:54 PM75 °FPassing clouds.12 mph60%30.02 "Hg10 mi
12:54 PM72 °FScattered clouds.13 mph73%30.04 "Hg10 mi
11:54 AM69 °FBroken clouds.10 mph76%30.06 "Hg10 mi
10:54 AM67 °FMostly cloudy.7 mph79%30.06 "Hg10 mi
9:54 AM63 °FMore clouds than sun.5 mph90%30.07 "Hg9 mi
Weather by CustomWeather, © 2015

See weather overviewHow to use our weather pages